Regional Weather Roundup
Issued by NWS

Home | Current Version | Previous Version | Graphics & Text | Print | Product List | Glossary Off
Versions: 1 2 3 4 5 6 7 8 9 10 11 12 13 14 15 16 17 18 19 20 21 22 23 24 25 26 27 28 29 30 31 32 33 34 35 36 37 38 39 40 41 42 43 44 45 46 47 48 49 50

000
ASUS43 KTOP 190759
RWRKS

WEATHER ROUNDUP FOR KANSAS
NATIONAL WEATHER SERVICE GOODLAND KS
200 AM CST FRI DEC 19 2014

NOTE:  "FAIR" INDICATES FEW OR NO CLOUDS BELOW 12,000 FEET WITH NO
SIGNIFICANT WEATHER AND/OR OBSTRUCTIONS TO VISIBILITY.

KSZ001>006-013>018-027>032-041>047-190900-
NORTHWEST KANSAS

CITY           SKY/WX    TMP DP  RH WIND       PRES   REMARKS
GOODLAND       PTCLDY    24  20  84 W6        30.11F
HAYS           CLOUDY    32  25  74 S5        30.18F
HILL CITY      CLOUDY    33  29  85 SW3       30.17F
RUSSELL        CLOUDY    31  30  96 S7        30.18F
$$

KSZ061>065-074>080-084>089-190900-
SOUTHWEST KANSAS

CITY           SKY/WX    TMP DP  RH WIND       PRES   REMARKS
DODGE CITY     CLOUDY    33  30  88 S5        30.17F FOG
ELKHART          N/A     32  28  85 S5          N/A
GARDEN CITY    CLOUDY    33  31  92 SW7       30.15F
GREAT BEND     CLOUDY    30  27  86 S6        30.21F
LIBERAL        CLOUDY    36  30  80 CALM      30.18S
$$

KSZ066>073-081>083-090>101-190900-
SOUTHEAST KANSAS

CITY           SKY/WX    TMP DP  RH WIND       PRES   REMARKS
CHANUTE        CLOUDY    34  33  96 NW5       30.24S FOG
COFFEYVILLE    CLOUDY    35  34  96 N7        30.24F
HUTCHINSON     CLOUDY    31  28  89 S3        30.23F FOG
MEDICINE LODGE   N/A     34  31  88 CALM      30.22F
NEWTON         CLOUDY    28  25  86 CALM      30.24F VSB 1/2
PARSONS        CLOUDY    36  34  92 N3        30.25F
WICHITA INTL   CLOUDY    32  28  85 NE3       30.24S
WICHITA JABRA  CLOUDY    29  28  96 CALM      30.24S FOG
WICHITA MCCONL CLOUDY    30  28  94 NE3       30.24F
WINFIELD       CLOUDY    33  31  92 N7        30.24F
$$

KSZ007>012-019>026-033>040-048>060-102>105-190900-
NORTHEAST KANSAS

CITY           SKY/WX    TMP DP  RH WIND       PRES   REMARKS
CONCORDIA      CLOUDY    28  27  96 SW5       30.22F
EMPORIA        CLOUDY    30  29  96 CALM      30.24F FOG
LAWRENCE       CLOUDY    32  28  85 CALM      30.27S
MANHATTAN      CLOUDY    31  28  89 SE3       30.25F
OLATHE IND     CLOUDY    31  29  92 SW5       30.26S
OLATHE EXE     CLOUDY    32  30  92 CALM      30.24S
SALINA         CLOUDY    30  27  88 SE3       30.24F FOG
TOPEKA BILLARD CLOUDY    32  29  88 SE3       30.27S
TOPEKA FORBES  CLOUDY    32  28  85 CALM      30.25F
$$



USA.gov is the U.S. government's official web portal to all federal, state and local government web resources and services.